[[{"header":{"parameterUnit":"m.s-1","parameterCategory":1,"la1":30.2991,"la2":30.254,"lo1":-89.0895,"lo2":-89.0444,"dy":0.0017,"dx":0.0017,"nx":28,"ny":28,"refTime":"2025-01-02T03:00:00:Z","depth":0,"parameterNumber":2,"parameterNumberName":"U-component_of_WINDS"},"data":[0,0,0,0,0,0,0,0,0,0,0,0,0,0,0,0,0,0,0,0,0,0,0,0,0,0,0,0,0,0,0,0,0,0,0,0,0,0,0,0,0,0,0,0,0,0,0,0,0,0,0,0,0,0,0,0,0,0,-0.7846,-0.7846,0,-0.7889,-0.789,-0.789,-0.7841,-0.784,-0.7838,-0.7836,-0.7885,-0.7888,-0.7891,0,0,0,0,0,0,0,0,0,0,0,0,0,-0.7724,-0.7726,-0.7845,-0.7846,-0.7847,-0.7889,-0.789,-0.789,-0.7842,-0.784,-0.7837,-0.7835,-0.7884,-0.7887,-0.7891,0,0,0,0,0,0,0,0,0,0,0,0,0,-0.7773,-0.7727,-0.7845,-0.7827,-0.7826,-0.7889,-0.789,-0.789,-0.7842,-0.7839,-0.7837,-0.7834,-0.7883,-0.7887,-0.7892,-0.7975,0,0,-0.7906,-0.7908,0,0,0,0,0,0,0,0,-0.777,-0.7778,-0.7829,-0.7829,-0.7828,-0.7857,-0.7864,-0.7919,-0.7843,-0.7836,-0.7836,-0.7833,-0.7878,-0.7883,-0.7897,-0.7978,-0.798,-0.7906,-0.7909,-0.7911,-0.7912,0,0,0,0,0,0,0,-0.7767,-0.7775,-0.7863,-0.783,-0.7829,-0.7818,-0.7822,-0.7875,-0.7873,-0.7837,-0.7833,-0.7839,-0.7877,-0.7893,-0.7898,-0.7981,-0.7906,-0.791,-0.7913,-0.7914,-0.8132,-0.8135,0,0,0,0,0,0,-0.7765,-0.7773,-0.7861,-0.7864,-0.7791,-0.7823,-0.7827,-0.785,-0.7872,-0.7872,-0.7841,-0.7836,-0.7887,-0.7893,-0.79,-0.8,-0.7911,-0.7915,-0.7918,-0.8129,-0.8133,-0.8136,0,0,0,0,0,0,-0.7763,-0.7773,-0.786,-0.7818,-0.7828,-0.7828,-0.7854,-0.7853,-0.7869,-0.7875,-0.7875,-0.7858,-0.7885,-0.7893,-0.7957,-0.8001,-0.7917,-0.7921,-0.8125,-0.813,-0.8134,-0.8201,0,0,0,0,0,0,-0.7759,-0.7773,-0.7804,-0.7819,-0.783,-0.7915,-0.7857,-0.7856,-0.7876,-0.787,-0.789,-0.7891,-0.7883,-0.795,-0.7961,-0.8006,-0.7925,-0.8122,-0.8128,-0.8133,-0.8195,-0.8207,-0.8217,0,0,0,0,0,-0.7755,-0.7822,-0.7806,-0.7817,-0.7869,-0.7918,-0.7925,-0.7913,-0.788,-0.7912,-0.7916,-0.7891,-0.7994,-0.7957,-0.7969,-0.8016,-0.8119,-0.8126,-0.8133,-0.8189,-0.8204,-0.8217,0,0,0,0,0,0,-0.7814,-0.7823,-0.7806,-0.7879,-0.7898,-0.791,-0.795,-0.7929,-0.7959,-0.7953,-0.7938,-0.7943,-0.801,-0.8019,-0.7978,-0.8098,-0.8051,-0.8061,-0.809,-0.8104,-0.8116,-0.8113,-0.7928,0,0,0,0,0,-0.7835,-0.7873,-0.788,-0.7944,-0.7954,-0.795,-0.7971,-0.796,-0.798,-0.7988,-0.7996,-0.8018,-0.8055,-0.808,-0.8114,-0.8195,-0.8199,-0.8232,-0.8244,-0.8253,-0.8262,-0.8306,-0.8322,-0.8159,-0.8159,-0.8158,0,0,-0.7881,-0.789,-0.7915,-0.7956,-0.7969,-0.801,-0.7957,-0.8003,-0.8033,-0.7995,-0.8056,-0.8063,-0.8085,-0.8158,-0.819,-0.8167,-0.8308,-0.8262,-0.8269,-0.8274,-0.8315,-0.833,-0.8344,-0.8163,-0.8162,-0.8162,0,0,-0.7984,-0.7994,-0.8049,-0.8063,-0.8083,-0.808,-0.8093,-0.8107,-0.811,-0.817,-0.8142,-0.8178,-0.8242,-0.826,-0.8277,-0.8385,-0.8363,-0.8396,-0.8457,-0.85,-0.8513,-0.8524,-0.8564,-0.8579,-0.8405,-0.8405,-0.8405,0,-0.8038,-0.8097,-0.808,-0.8127,-0.8146,-0.8111,-0.8167,-0.8182,-0.8213,-0.8228,-0.82,-0.828,-0.8292,-0.8369,-0.8395,-0.8409,-0.8425,-0.8395,-0.8512,-0.8523,-0.8534,-0.8572,-0.8587,-0.8409,-0.8409,-0.8408,-0.8408,0,-0.8163,-0.8204,-0.8246,-0.8276,-0.8299,-0.835,-0.8342,-0.8368,-0.8354,-0.8354,-0.8416,-0.8429,-0.8466,-0.8483,-0.8471,-0.8558,-0.8543,-0.8514,-0.8467,-0.8554,-0.8589,-0.8603,-0.8415,-0.8414,-0.8412,-0.8411,0,0,-0.8308,-0.8325,-0.8341,-0.8354,-0.8373,-0.8405,-0.8455,-0.8489,-0.8512,-0.8534,-0.8576,-0.863,-0.8604,-0.8623,-0.8612,-0.865,-0.8736,-0.8616,-0.8617,-0.864,-0.8834,-0.8856,-0.8873,-0.872,-0.8723,-0.8725,-0.8832,0,-0.8412,-0.8497,-0.8483,-0.8566,-0.8605,-0.8571,-0.8614,-0.8631,-0.8632,-0.8666,-0.8667,-0.8706,-0.8667,-0.8679,-0.8714,-0.8718,-0.8775,-0.8709,-0.8761,-0.8763,-0.8759,-0.8892,-0.8916,-0.9017,-0.8846,-0.8848,-0.885,0,-0.8547,-0.8572,-0.8659,-0.8671,-0.8686,-0.8726,-0.8756,-0.8788,-0.8806,-0.8804,-0.8825,-0.8807,-0.8857,-0.8807,-0.8878,-0.8834,-0.8854,-0.8858,-0.8862,-0.8869,-0.8814,-0.8904,-0.9049,-0.9065,-0.8871,-0.8869,-0.8868,0,-0.8645,-0.8701,-0.876,-0.8772,-0.8787,-0.8816,-0.8824,-0.8839,-0.886,-0.8887,-0.89,-0.8933,-0.8951,-0.8977,-0.8968,-0.8933,-0.9041,-0.899,-0.9042,-0.9043,-0.9069,-0.9068,-0.9221,-0.9078,-0.9078,-0.9078,-0.9077,0,-0.8765,-0.882,-0.8805,-0.8841,-0.8902,-0.8884,-0.8945,-0.8949,-0.8963,-0.9,-0.8973,-0.9009,-0.8994,-0.903,-0.9023,-0.9083,-0.9091,-0.9092,-0.909,-0.9096,-0.9096,-0.911,-0.9104,-0.9082,-0.9081,-0.908,-0.9079,0,-0.8887,-0.8878,-0.8941,-0.8949,-0.8953,-0.8997,-0.9005,-0.904,-0.9037,-0.9085,-0.9096,-0.9093,-0.9133,-0.9126,-0.9171,-0.9166,-0.9241,-0.923,-0.9235,-0.9233,-0.9286,-0.9282,-0.9456,-0.9479,-0.9319,-0.9321,-0.9322,0,-0.8965,-0.9006,-0.9019,-0.9041,-0.9051,-0.9087,-0.9108,-0.9092,-0.9116,-0.9139,-0.9171,-0.9208,-0.9238,-0.9303,-0.9306,-0.934,-0.933,-0.9389,-0.9336,-0.934,-0.9334,-0.9332,-0.9337,-0.9401,-0.9402,-0.9404,-0.9405,0,-0.9105,-0.9099,-0.913,-0.9159,-0.9184,-0.9207,-0.9227,-0.9248,-0.9233,-0.9261,-0.9301,-0.9323,-0.9368,-0.9406,-0.9437,-0.9446,-0.9425,-0.9421,-0.9435,-0.9443,-0.9445,-0.9446,-0.9266,-0.9418,-0.9417,-0.9416,-0.9415,-0.9415,-0.9209,-0.9244,-0.9258,-0.9293,-0.9306,-0.9325,-0.9358,-0.9359,-0.9392,-0.9426,-0.9414,-0.946,-0.9477,-0.9517,-0.9529,-0.9565,-0.9544,-0.9564,-0.957,-0.9575,-0.9582,-0.9437,-0.9571,-0.957,-0.957,-0.957,-0.9569,0,-0.935,-0.9356,-0.9388,-0.9417,-0.9445,-0.9418,-0.9439,-0.9465,-0.9505,-0.9521,-0.955,-0.9596,-0.9632,-0.9636,-0.9671,-0.9699,-0.969,-0.9709,-0.9708,-0.971,-0.9599,-0.9584,-0.9716,-0.9716,-0.9716,-0.9716,-0.9715,-0.9715,-0.9426,-0.9484,-0.9479,-0.9543,-0.955,-0.9593,-0.9608,-0.9625,-0.9638,-0.9691,-0.972,-0.9722,-0.9734,-0.9768,-0.9801,-0.9801,-0.9816,-0.9839,-0.9836,-0.9733,-0.9718,-0.9704,-0.969,-0.9842,-0.9842,-0.9945,-0.9946,-0.9947]},{"header":{"parameterUnit":"m.s-1","parameterCategory":1,"la1":30.2991,"la2":30.254,"lo1":-89.0895,"lo2":-89.0444,"dy":0.0017,"dx":0.0017,"nx":28,"ny":28,"refTime":"2025-01-02T03:00:00:Z","depth":0,"parameterNumber":3,"parameterNumberName":"V-component_of_WINDS"},"data":[0,0,0,0,0,0,0,0,0,0,0,0,0,0,0,0,0,0,0,0,0,0,0,0,0,0,0,0,0,0,0,0,0,0,0,0,0,0,0,0,0,0,0,0,0,0,0,0,0,0,0,0,0,0,0,0,0,0,-3.7485,-3.7486,0,-3.7581,-3.7582,-3.7584,-3.7526,-3.7523,-3.752,-3.7517,-3.7615,-3.762,-3.7625,0,0,0,0,0,0,0,0,0,0,0,0,0,-3.725,-3.7255,-3.7485,-3.7486,-3.7488,-3.7581,-3.7583,-3.7584,-3.7526,-3.7523,-3.7519,-3.7516,-3.7613,-3.7619,-3.7625,0,0,0,0,0,0,0,0,0,0,0,0,0,-3.735,-3.7256,-3.7485,-3.747,-3.747,-3.7581,-3.7583,-3.7584,-3.7527,-3.7523,-3.7518,-3.7515,-3.7611,-3.7619,-3.7626,-3.7757,0,0,-3.765,-3.7653,0,0,0,0,0,0,0,0,-3.7344,-3.7358,-3.7471,-3.7471,-3.7471,-3.7537,-3.7535,-3.7642,-3.7528,-3.7505,-3.7517,-3.7513,-3.7592,-3.7601,-3.7628,-3.7762,-3.7766,-3.7651,-3.7655,-3.7659,-3.7661,0,0,0,0,0,0,0,-3.7337,-3.7354,-3.7523,-3.7473,-3.7473,-3.7458,-3.7468,-3.7555,-3.7571,-3.7507,-3.7503,-3.7515,-3.7591,-3.7621,-3.763,-3.7767,-3.765,-3.7657,-3.7662,-3.7665,-3.8013,-3.8017,0,0,0,0,0,0,-3.7332,-3.7349,-3.752,-3.7526,-3.7396,-3.7466,-3.7476,-3.752,-3.757,-3.7573,-3.7518,-3.7512,-3.761,-3.7621,-3.7633,-3.779,-3.7659,-3.7666,-3.767,-3.8008,-3.8014,-3.8019,0,0,0,0,0,0,-3.7327,-3.7348,-3.7516,-3.7436,-3.7457,-3.7474,-3.7524,-3.7524,-3.7554,-3.7579,-3.7581,-3.7546,-3.7607,-3.7623,-3.7727,-3.7793,-3.7669,-3.7676,-3.8003,-3.801,-3.8016,-3.8105,0,0,0,0,0,0,-3.732,-3.7346,-3.7397,-3.7438,-3.7461,-3.7609,-3.7528,-3.7529,-3.7568,-3.756,-3.7605,-3.7608,-3.7605,-3.7716,-3.7735,-3.7801,-3.7682,-3.7997,-3.8006,-3.8014,-3.8096,-3.8114,-3.8129,0,0,0,0,0,-3.7312,-3.7418,-3.7399,-3.742,-3.7525,-3.7613,-3.7626,-3.762,-3.7573,-3.7624,-3.7639,-3.7607,-3.7782,-3.7727,-3.7748,-3.7818,-3.7993,-3.8003,-3.8013,-3.8089,-3.8111,-3.8129,0,0,0,0,0,0,-3.7383,-3.7423,-3.7403,-3.7525,-3.7566,-3.7603,-3.7667,-3.7643,-3.7698,-3.7689,-3.7679,-3.769,-3.7799,-3.7818,-3.7756,-3.7947,-3.788,-3.7895,-3.793,-3.7951,-3.7967,-3.7961,-3.7689,0,0,0,0,0,-3.7413,-3.7482,-3.7512,-3.7617,-3.7638,-3.7649,-3.7687,-3.7679,-3.7721,-3.7738,-3.7762,-3.7803,-3.7867,-3.791,-3.7971,-3.8098,-3.8107,-3.8157,-3.8173,-3.8187,-3.82,-3.8269,-3.8291,-3.8053,-3.8052,-3.8052,0,0,-3.7475,-3.7505,-3.7549,-3.7632,-3.7663,-3.7734,-3.7664,-3.7742,-3.7795,-3.775,-3.785,-3.7869,-3.7914,-3.8031,-3.8084,-3.8051,-3.8268,-3.82,-3.821,-3.8216,-3.8282,-3.8304,-3.8324,-3.8059,-3.8058,-3.8057,0,0,-3.7626,-3.7655,-3.7746,-3.7778,-3.7826,-3.7832,-3.7854,-3.7894,-3.7905,-3.8006,-3.7973,-3.8035,-3.8146,-3.818,-3.8212,-3.8375,-3.8347,-3.8395,-3.8481,-3.8549,-3.8567,-3.8584,-3.8642,-3.8663,-3.8408,-3.8408,-3.8408,0,-3.7697,-3.7803,-3.7795,-3.7876,-3.7913,-3.7876,-3.7967,-3.7999,-3.8064,-3.809,-3.8052,-3.8191,-3.8219,-3.8343,-3.8383,-3.841,-3.8434,-3.839,-3.8565,-3.8582,-3.8597,-3.8653,-3.8675,-3.8413,-3.8413,-3.8412,-3.8412,0,-3.7889,-3.7963,-3.803,-3.8095,-3.8139,-3.8225,-3.8229,-3.8275,-3.8263,-3.8273,-3.8376,-3.8408,-3.8475,-3.8503,-3.8492,-3.8626,-3.8604,-3.8566,-3.8499,-3.8626,-3.8678,-3.8699,-3.8421,-3.8419,-3.8418,-3.8416,0,0,-3.8088,-3.8146,-3.8171,-3.8199,-3.8249,-3.8306,-3.839,-3.8455,-3.8495,-3.8541,-3.8611,-3.8705,-3.8671,-3.8707,-3.8699,-3.8758,-3.8885,-3.8713,-3.8713,-3.8744,-3.9035,-3.9064,-3.9089,-3.8867,-3.8871,-3.8874,-3.9031,0,-3.8241,-3.8388,-3.8383,-3.852,-3.8588,-3.8553,-3.8626,-3.8664,-3.8676,-3.8735,-3.8747,-3.8815,-3.8764,-3.8785,-3.8842,-3.8858,-3.8943,-3.8846,-3.8932,-3.8935,-3.8922,-3.9116,-3.9147,-3.9294,-3.9051,-3.9055,-3.9057,0,-3.844,-3.8493,-3.8638,-3.8677,-3.8705,-3.8771,-3.8831,-3.8888,-3.893,-3.8934,-3.8975,-3.8957,-3.9042,-3.8972,-3.9088,-3.9021,-3.9056,-3.9069,-3.9074,-3.9083,-3.9004,-3.913,-3.9341,-3.9363,-3.9089,-3.9087,-3.9084,0,-3.8571,-3.8679,-3.8779,-3.8804,-3.8853,-3.89,-3.8922,-3.896,-3.9,-3.9051,-3.9077,-3.9138,-3.9171,-3.9218,-3.9217,-3.9166,-3.9335,-3.9265,-3.9341,-3.9341,-3.9379,-3.9377,-3.9599,-3.94,-3.94,-3.9399,-3.9399,0,-3.8744,-3.8834,-3.8838,-3.89,-3.8999,-3.8992,-3.909,-3.9107,-3.9142,-3.9206,-3.9179,-3.9239,-3.9234,-3.9295,-3.9295,-3.9391,-3.9406,-3.9412,-3.9411,-3.9415,-3.9414,-3.9438,-3.9428,-3.9405,-3.9404,-3.9403,-3.9402,0,-3.8908,-3.8914,-3.9021,-3.9058,-3.907,-3.9141,-3.9173,-3.9231,-3.924,-3.9321,-3.934,-3.9354,-3.9424,-3.9428,-3.9509,-3.9509,-3.9626,-3.9613,-3.9612,-3.961,-3.9686,-3.9679,-3.9932,-3.9965,-3.9744,-3.9746,-3.9748,0,-3.9018,-3.9086,-3.9131,-3.9172,-3.9197,-3.9264,-3.9304,-3.9299,-3.9342,-3.9395,-3.9447,-3.9515,-3.9569,-3.9683,-3.97,-3.9762,-3.9751,-3.9835,-3.976,-3.9762,-3.9753,-3.975,-3.9756,-3.985,-3.9853,-3.9855,-3.9856,0,-3.9213,-3.9213,-3.9272,-3.9334,-3.9383,-3.943,-3.9474,-3.951,-3.9509,-3.9559,-3.9631,-3.9673,-3.9756,-3.9824,-3.9884,-3.9906,-3.9882,-3.988,-3.9901,-3.9906,-3.9903,-3.9906,-3.9653,-3.9874,-3.9872,-3.9871,-3.987,-3.9869,-3.9354,-3.9413,-3.9454,-3.9521,-3.9553,-3.9595,-3.9652,-3.9668,-3.9728,-3.9796,-3.9789,-3.9869,-3.9908,-3.9987,-4.0014,-4.0076,-4.0047,-4.0077,-4.0085,-4.0093,-4.0101,-3.9892,-4.0087,-4.0086,-4.0086,-4.0085,-4.0085,0,-3.9548,-3.9572,-3.9634,-3.9697,-3.975,-3.9722,-3.977,-3.9816,-3.9887,-3.9926,-3.998,-4.0063,-4.0128,-4.015,-4.0214,-4.0259,-4.025,-4.0276,-4.0273,-4.0279,-4.0123,-4.0099,-4.0283,-4.0283,-4.0283,-4.0283,-4.0283,-4.0283,-3.9656,-3.9754,-3.9759,-3.9873,-3.9896,-3.9975,-4.0005,-4.0043,-4.0075,-4.0168,-4.0223,-4.0237,-4.0269,-4.0335,-4.0394,-4.0398,-4.0423,-4.0455,-4.0455,-4.031,-4.029,-4.0271,-4.0248,-4.046,-4.046,-4.0605,-4.0607,-4.0608]}]]